�N����,����,�~����,�C��,���x,�C��,����,���ϕ���,�ő�u�ԕ���,�ő厞����,���˗�,�I�_���x,�n�����x,�ő啗���N��,DTYPE
"22/08/01","00:10",0.0,27.7,77.4,1007.4,327.2,1.2,1.7,342.2,0.00,23.4,26.3,"00:07:48",1
"22/08/01","00:20",0.0,27.7,77.2,1007.4,326.0,1.2,2.5,338.6,0.00,23.4,26.3,"00:18:40",1
"22/08/01","00:30",0.0,27.9,77.3,1007.4,340.6,0.8,1.6,340.3,0.00,23.6,26.4,"00:21:04",1
"22/08/01","00:40",0.0,27.6,77.8,1007.1,328.8,1.0,1.7,339.6,0.00,23.4,26.4,"00:32:00",1
"22/08/01","00:50",0.0,27.5,78.4,1007.4,329.6,0.6,1.2,356.8,0.00,23.4,26.3,"00:49:04",1
"22/08/01","01:00",0.0,27.4,79.0,1007.6,334.8,1.0,1.6,346.7,0.00,23.5,26.1,"00:55:28",1
"22/08/01","01:10",0.0,27.2,79.2,1007.4,336.8,1.0,1.6,341.7,0.00,23.3,26.5,"01:03:28",1
"22/08/01","01:20",0.0,27.3,79.1,1007.4,345.6,0.8,1.9,331.0,0.00,23.4,26.2,"01:12:08",1
"22/08/01","01:30",0.0,27.3,79.1,1007.1,327.5,0.7,1.3,348.9,0.00,23.4,26.2,"01:20:32",1
"22/08/01","01:40",0.0,27.2,79.3,1007.1,309.8,0.6,1.7,336.8,0.00,23.3,26.3,"01:33:20",1
"22/08/01","01:50",0.0,27.0,79.6,1007.4,321.5,0.5,1.4,322.9,0.00,23.2,26.2,"01:46:40",1
"22/08/01","02:00",0.0,26.8,80.2,1006.9,328.9,0.6,1.1,339.7,0.00,23.1,26.2,"01:59:20",1
"22/08/01","02:10",0.0,26.8,80.8,1007.4,335.0,0.8,1.3,325.1,0.00,23.3,26.0,"02:09:28",1
"22/08/01","02:20",0.0,26.7,81.5,1007.4,318.2,1.1,1.6,301.8,0.00,23.3,26.5,"02:15:20",1
"22/08/01","02:30",0.0,26.6,81.9,1006.9,314.0,1.0,1.7,331.4,0.00,23.3,26.1,"02:29:12",1
"22/08/01","02:40",0.0,26.5,82.3,1007.4,294.2,0.8,1.4,318.5,0.00,23.3,26.1,"02:32:08",1
"22/08/01","02:50",0.0,26.4,82.6,1007.8,314.8,1.0,1.6,330.7,0.00,23.2,26.2,"02:41:44",1
"22/08/01","03:00",0.0,26.5,82.6,1007.4,295.7,0.8,2.1,325.9,0.00,23.3,26.3,"02:51:12",1
"22/08/01","03:10",0.0,26.6,82.5,1007.6,333.4,1.0,1.8,342.8,0.00,23.4,26.2,"03:08:00",1
"22/08/01","03:20",0.0,26.5,82.7,1007.6,323.0,1.0,1.7,338.0,0.00,23.4,26.2,"03:19:20",1
"22/08/01","03:30",0.0,26.3,83.1,1007.6,310.5,0.8,1.3,316.8,0.00,23.2,26.2,"03:24:32",1
"22/08/01","03:40",0.0,26.2,83.5,1007.4,335.8,1.0,1.7,344.4,0.00,23.2,26.2,"03:37:12",1
"22/08/01","03:50",0.0,26.1,84.3,1007.6,308.2,1.0,1.3,307.1,0.00,23.3,26.1,"03:43:12",1
"22/08/01","04:00",0.0,26.1,84.7,1007.6,294.2,1.0,1.2,310.2,0.00,23.4,26.2,"03:51:52",1
"22/08/01","04:10",0.0,26.1,84.9,1007.8,314.6,1.1,1.6,317.8,0.00,23.4,26.2,"04:04:24",1
"22/08/01","04:20",0.0,26.0,85.1,1007.6,335.0,1.1,1.8,345.9,0.00,23.3,25.9,"04:15:20",1
"22/08/01","04:30",0.0,25.9,85.4,1007.8,309.1,0.8,1.3,309.1,0.00,23.3,25.9,"04:24:48",1
"22/08/01","04:40",0.0,25.8,85.7,1007.8,309.2,0.8,1.4,335.3,0.00,23.3,25.9,"04:30:02",1
"22/08/01","04:50",0.0,25.5,85.9,1007.8,301.5,0.6,1.1,327.3,0.00,23.0,25.9,"04:40:08",1
"22/08/01","05:00",0.0,25.5,86.3,1007.6,323.1,0.8,1.4,335.5,0.00,23.1,25.8,"04:57:12",1
"22/08/01","05:10",0.0,25.3,86.6,1007.8,311.3,0.7,1.2,340.5,0.00,22.9,25.9,"05:01:04",1
"22/08/01","05:20",0.0,25.2,87.0,1007.8,224.6,0.3,1.0,269.5,0.00,22.9,25.9,"05:19:28",1
"22/08/01","05:30",0.0,25.3,87.4,1007.6,315.7,1.0,1.6,347.7,0.00,23.1,25.8,"05:28:08",1
"22/08/01","05:40",0.0,25.2,87.7,1007.6,346.1,1.0,1.6,2.8,0.00,23.1,25.9,"05:30:16",1
"22/08/01","05:50",0.0,25.0,88.2,1007.8,340.2,0.8,1.2,339.3,0.00,23.0,25.8,"05:41:44",1
"22/08/01","06:00",0.0,24.6,88.6,1007.8,298.0,0.6,0.9,321.8,0.00,22.6,25.9,"05:54:16",1
"22/08/01","06:10",0.0,24.7,89.0,1007.8,301.8,0.8,1.6,317.9,0.00,22.8,25.8,"06:04:56",1
"22/08/01","06:20",0.0,24.6,89.2,1008.1,316.9,0.8,1.3,336.6,0.00,22.7,25.7,"06:12:56",1
"22/08/01","06:30",0.0,24.7,89.5,1007.8,329.1,1.1,1.7,325.8,0.00,22.9,25.7,"06:24:56",1
"22/08/01","06:40",0.0,25.0,89.6,1007.8,330.4,1.0,1.3,339.1,0.01,23.2,25.8,"06:38:08",1
"22/08/01","06:50",0.0,25.7,89.8,1008.1,340.9,0.8,1.2,339.3,0.03,23.9,25.7,"06:40:08",1
"22/08/01","07:00",0.0,26.5,89.3,1007.8,348.8,0.6,1.2,353.3,0.05,24.6,25.4,"06:55:12",1
"22/08/01","07:10",0.0,27.3,87.8,1007.8,213.9,0.1,0.5,145.9,0.06,25.1,25.6,"07:08:56",1
"22/08/01","07:20",0.0,28.1,87.3,1007.8,138.2,0.0,0.3,139.4,0.09,25.8,25.5,"07:15:28",1
"22/08/01","07:30",0.0,29.3,84.1,1006.9,17.8,0.1,0.5,23.7,0.11,26.4,25.8,"07:29:04",1
"22/08/01","07:40",0.0,30.2,78.7,1007.6,6.5,0.3,1.0,17.2,0.13,26.1,25.9,"07:37:28",1
"22/08/01","07:50",0.0,31.0,72.5,1007.6,11.9,0.7,1.4,12.6,0.16,25.5,25.7,"07:44:08",1
"22/08/01","08:00",0.0,31.2,70.5,1007.8,33.4,0.3,1.3,26.0,0.18,25.2,25.8,"07:59:52",1
"22/08/01","08:10",0.0,31.9,68.3,1008.3,60.5,0.6,1.7,37.8,0.20,25.4,25.6,"08:05:44",1
"22/08/01","08:20",0.0,31.7,66.7,1008.3,23.4,1.0,1.8,6.1,0.22,24.8,25.8,"08:19:12",1
"22/08/01","08:30",0.0,31.7,66.5,1008.6,30.6,0.8,1.7,4.4,0.25,24.7,25.7,"08:22:40",1
"22/08/01","08:40",0.0,32.0,67.5,1008.6,36.0,0.8,1.7,45.6,0.27,25.3,25.5,"08:31:12",1
"22/08/01","08:50",0.0,32.3,65.7,1008.8,24.0,0.6,1.4,16.7,0.30,25.1,25.8,"08:40:56",1
"22/08/01","09:00",0.0,32.4,65.8,1009.3,116.9,0.7,2.4,129.2,0.32,25.2,25.8,"08:55:44",1
"22/08/01","09:10",0.0,32.4,66.2,1009.0,159.7,1.3,3.1,207.9,0.35,25.3,25.7,"09:04:56",1
"22/08/01","09:20",0.0,32.4,65.4,1009.3,133.4,1.1,2.7,187.2,0.37,25.1,25.8,"09:18:40",1
"22/08/01","09:30",0.0,32.4,64.9,1009.3,162.6,1.5,4.8,212.0,0.39,25.0,25.7,"09:29:44",1
"22/08/01","09:40",0.0,32.8,65.6,1009.7,156.3,1.7,3.4,189.1,0.40,25.5,25.8,"09:30:24",1
"22/08/01","09:50",0.0,32.6,65.1,1009.3,155.7,1.7,3.1,208.0,0.42,25.2,25.9,"09:44:48",1
"22/08/01","10:00",0.0,33.0,65.9,1009.5,161.6,1.6,4.3,234.8,0.42,25.8,26.1,"09:52:40",1
"22/08/01","10:10",0.0,33.4,64.6,1009.3,146.3,1.2,2.6,181.5,0.44,25.9,26.1,"10:00:24",1
"22/08/01","10:20",0.0,33.5,62.2,1009.3,186.2,1.6,4.0,196.4,0.46,25.3,26.0,"10:13:36",1
"22/08/01","10:30",0.0,33.6,61.5,1009.7,175.0,1.3,3.5,204.4,0.46,25.2,25.9,"10:26:40",1
"22/08/01","10:40",0.0,34.0,61.2,1009.5,164.4,1.5,3.9,203.8,0.49,25.5,26.2,"10:36:48",1
"22/08/01","10:50",0.0,33.9,59.1,1009.5,192.5,2.1,4.4,226.9,0.50,24.8,26.2,"10:45:28",1
"22/08/01","11:00",0.0,34.3,58.9,1009.3,170.8,2.2,4.1,212.1,0.52,25.1,26.2,"10:56:32",1
"22/08/01","11:10",0.0,34.6,58.5,1009.3,159.8,2.2,4.3,131.6,0.52,25.3,26.2,"11:00:40",1
"22/08/01","11:20",0.0,35.0,57.9,1009.3,177.4,1.8,4.1,197.3,0.53,25.5,26.3,"11:10:24",1
"22/08/01","11:30",0.0,34.9,56.1,1009.0,161.3,2.0,4.3,156.2,0.54,24.9,26.6,"11:26:48",1
"22/08/01","11:40",0.0,35.2,56.3,1009.0,238.5,1.6,4.1,204.8,0.54,25.2,26.4,"11:30:40",1
"22/08/01","11:50",0.0,35.2,56.2,1009.3,276.3,1.3,3.2,316.2,0.56,25.2,26.3,"11:48:56",1
"22/08/01","12:00",0.0,35.3,56.9,1009.3,290.2,1.2,3.2,272.6,0.58,25.5,26.3,"11:56:48",1
"22/08/01","12:10",0.0,34.9,54.9,1009.3,250.4,1.2,2.7,247.9,0.47,24.5,26.3,"12:03:36",1
"22/08/01","12:20",0.0,34.0,59.5,1008.8,325.2,1.7,4.3,345.6,0.33,25.0,26.5,"12:17:04",1
"22/08/01","12:30",0.0,34.3,59.7,1008.6,288.1,1.2,2.8,255.4,0.42,25.4,26.4,"12:27:44",1
"22/08/01","12:40",0.0,34.9,56.4,1008.8,273.8,1.8,3.9,230.7,0.59,25.0,26.4,"12:35:20",1
"22/08/01","12:50",0.0,35.6,53.9,1008.8,254.1,1.5,4.2,234.8,0.58,24.9,26.5,"12:49:36",1
"22/08/01","13:00",0.0,36.0,55.6,1008.8,249.3,1.3,3.9,234.6,0.60,25.8,26.7,"12:54:40",1
"22/08/01","13:10",0.0,36.0,55.2,1008.8,269.6,1.2,3.6,256.3,0.57,25.6,26.7,"13:06:00",1
"22/08/01","13:20",0.0,35.7,55.8,1008.6,302.5,1.3,3.4,333.3,0.44,25.5,26.9,"13:18:08",1
"22/08/01","13:30",0.0,35.9,54.9,1008.3,308.7,1.3,3.6,341.7,0.57,25.4,26.7,"13:26:24",1
"22/08/01","13:40",0.0,36.2,53.0,1008.6,244.5,2.0,4.7,216.4,0.53,25.1,26.7,"13:34:48",1
"22/08/01","13:50",0.0,35.8,55.5,1008.8,249.8,2.0,5.1,224.2,0.45,25.5,26.8,"13:40:48",1
"22/08/01","14:00",0.0,36.0,53.2,1008.8,289.3,1.6,5.1,345.6,0.56,25.0,26.9,"13:51:44",1
"22/08/01","14:10",0.0,36.2,52.9,1008.6,246.6,2.0,4.7,224.4,0.55,25.1,26.8,"14:03:52",1
"22/08/01","14:20",0.0,35.9,52.8,1008.6,258.7,1.7,4.5,238.9,0.52,24.8,27.0,"14:14:32",1
"22/08/01","14:30",0.0,35.9,54.1,1008.3,261.2,1.5,4.9,251.3,0.54,25.2,27.0,"14:24:24",1
"22/08/01","14:40",0.0,35.7,54.8,1008.6,280.1,2.1,4.7,331.4,0.51,25.2,26.9,"14:32:16",1
"22/08/01","14:50",0.0,35.9,54.3,1008.3,232.2,2.0,4.7,195.4,0.50,25.3,27.0,"14:43:20",1
"22/08/01","15:00",0.0,36.0,52.5,1008.1,210.9,2.2,5.1,189.3,0.47,24.8,27.2,"14:51:52",1
"22/08/01","15:10",0.0,36.2,53.3,1007.8,209.4,1.2,3.1,243.4,0.41,25.2,27.2,"15:06:08",1
"22/08/01","15:20",0.0,36.4,52.5,1007.6,215.6,1.8,4.4,222.6,0.47,25.2,27.2,"15:19:04",1
"22/08/01","15:30",0.0,36.1,53.4,1008.1,252.6,1.6,3.5,205.1,0.43,25.2,27.3,"15:20:08",1
"22/08/01","15:40",0.0,36.0,53.1,1007.8,294.1,1.3,4.0,231.5,0.40,25.0,27.1,"15:39:52",1
"22/08/01","15:50",0.0,35.5,53.6,1007.8,250.3,2.5,5.2,245.2,0.37,24.7,26.9,"15:47:36",1
"22/08/01","16:00",0.0,35.3,53.8,1007.4,246.0,2.2,5.1,229.7,0.35,24.6,27.3,"15:55:04",1
"22/08/01","16:10",0.0,35.4,53.4,1007.1,223.8,2.7,4.8,223.6,0.33,24.5,27.4,"16:02:56",1
"22/08/01","16:20",0.0,35.3,53.3,1007.4,219.3,2.7,5.7,233.6,0.30,24.4,27.3,"16:13:28",1
"22/08/01","16:30",0.0,35.4,53.8,1007.1,214.7,2.1,5.9,229.7,0.27,24.6,27.3,"16:25:20",1
"22/08/01","16:40",0.0,35.1,53.4,1007.1,225.4,2.6,5.4,228.9,0.25,24.2,27.4,"16:35:04",1
"22/08/01","16:50",0.0,35.0,51.7,1007.4,242.6,1.6,3.9,224.2,0.21,23.6,27.4,"16:46:16",1
"22/08/01","17:00",0.0,34.8,51.2,1007.1,230.0,2.3,5.7,214.3,0.18,23.3,27.2,"16:59:12",1
"22/08/01","17:10",0.0,34.9,50.8,1006.9,219.2,2.2,4.5,220.4,0.19,23.2,27.4,"17:01:36",1
"22/08/01","17:20",0.0,34.9,49.0,1007.1,243.9,1.8,3.9,232.7,0.17,22.6,27.4,"17:10:24",1
"22/08/01","17:30",0.0,34.6,49.5,1006.7,237.5,2.0,4.5,216.8,0.14,22.5,27.4,"17:21:28",1
"22/08/01","17:40",0.0,34.8,50.8,1007.1,265.0,1.1,2.5,229.6,0.14,23.1,27.3,"17:30:32",1
"22/08/01","17:50",0.0,34.6,49.9,1006.9,325.3,1.6,3.4,342.4,0.12,22.7,27.3,"17:42:16",1
"22/08/01","18:00",0.0,34.3,50.7,1006.7,330.4,1.7,3.6,350.3,0.07,22.7,27.2,"17:55:28",1
"22/08/01","18:10",0.0,34.1,51.1,1006.7,328.8,1.6,3.7,350.0,0.01,22.6,27.4,"18:01:36",1
"22/08/01","18:20",0.0,34.0,52.2,1006.9,331.5,1.1,2.7,339.4,0.01,22.9,27.2,"18:18:24",1
"22/08/01","18:30",0.0,33.7,51.8,1006.7,311.0,1.2,2.6,324.2,0.01,22.5,27.6,"18:22:24",1
"22/08/01","18:40",0.0,33.3,51.6,1006.9,315.0,1.0,3.4,339.7,0.00,22.0,27.6,"18:35:36",1
"22/08/01","18:50",0.0,32.9,52.2,1006.7,333.4,1.1,2.6,343.6,0.00,21.8,27.2,"18:41:44",1
"22/08/01","19:00",0.0,32.4,52.7,1006.2,333.7,1.0,2.0,355.3,0.00,21.5,27.4,"18:56:08",1
"22/08/01","19:10",0.0,32.1,53.9,1006.2,343.9,0.8,2.5,346.5,0.00,21.6,27.1,"19:04:56",1
"22/08/01","19:20",0.0,31.8,54.4,1006.0,312.2,1.3,3.1,338.0,0.00,21.5,27.3,"19:14:16",1
"22/08/01","19:30",0.0,31.7,54.9,1005.7,327.2,1.2,2.6,0.8,0.00,21.6,27.2,"19:29:44",1
"22/08/01","19:40",0.0,31.4,56.0,1005.5,342.6,1.2,2.8,348.5,0.00,21.6,27.3,"19:30:24",1
"22/08/01","19:50",0.0,31.2,56.5,1005.5,318.7,1.1,2.4,334.6,0.00,21.6,27.1,"19:45:20",1
"22/08/01","20:00",0.0,30.9,58.7,1005.5,0.4,0.7,2.9,8.9,0.00,21.9,27.2,"19:50:08",1
"22/08/01","20:10",0.0,30.2,60.6,1005.7,98.0,0.5,1.9,118.6,0.00,21.8,27.1,"20:08:08",1
"22/08/01","20:20",0.0,29.7,63.5,1005.5,196.0,0.3,0.9,219.7,0.00,22.1,27.3,"20:15:12",1
"22/08/01","20:30",0.0,29.1,65.0,1005.2,357.6,0.7,1.6,9.7,0.00,21.9,27.2,"20:22:48",1
"22/08/01","20:40",0.0,28.7,66.6,1006.0,347.8,1.0,1.7,334.6,0.00,21.9,27.2,"20:38:16",1
"22/08/01","20:50",0.0,28.8,66.9,1006.2,346.5,1.3,2.5,351.5,0.00,22.1,27.0,"20:45:12",1
"22/08/01","21:00",0.0,28.6,67.6,1006.4,339.8,1.0,1.4,345.3,0.00,22.1,27.1,"20:57:28",1
"22/08/01","21:10",0.0,28.6,68.6,1006.7,332.9,1.1,1.9,346.0,0.00,22.3,27.1,"21:00:16",1
"22/08/01","21:20",0.0,28.1,69.5,1006.7,350.0,1.0,1.8,351.3,0.00,22.0,27.2,"21:10:56",1
"22/08/01","21:30",0.0,28.2,71.0,1007.1,341.5,1.5,2.8,339.5,0.00,22.5,27.0,"21:23:44",1
"22/08/01","21:40",0.0,27.9,72.8,1007.1,348.1,1.5,2.4,351.3,0.00,22.6,27.1,"21:31:52",1
"22/08/01","21:50",0.0,27.2,74.8,1006.9,344.7,1.8,2.8,349.1,0.00,22.4,26.9,"21:47:04",1
"22/08/01","22:00",0.0,27.0,75.4,1007.4,344.7,1.5,2.2,329.3,0.00,22.3,26.9,"21:54:32",1
"22/08/01","22:10",0.0,26.8,76.2,1007.4,337.6,1.1,2.1,338.4,0.00,22.3,27.0,"22:03:44",1
"22/08/01","22:20",0.0,26.5,76.8,1007.6,323.0,0.7,1.3,326.2,0.00,22.1,26.8,"22:19:52",1
"22/08/01","22:30",0.0,26.5,77.0,1007.6,313.0,1.0,1.4,332.8,0.00,22.2,26.9,"22:22:32",1
"22/08/01","22:40",0.0,26.5,76.6,1007.6,317.0,1.2,1.9,309.2,0.00,22.1,26.7,"22:34:16",1
"22/08/01","22:50",0.0,26.5,76.4,1007.6,328.0,1.3,2.2,340.7,0.00,22.1,26.9,"22:43:28",1
"22/08/01","23:00",0.0,26.4,76.6,1007.6,309.4,1.1,1.9,316.4,0.00,22.0,26.7,"22:55:52",1
"22/08/01","23:10",0.0,26.3,76.9,1007.8,289.8,1.0,1.8,326.5,0.00,22.0,26.5,"23:06:00",1
"22/08/01","23:20",0.0,26.2,77.2,1007.8,290.7,0.8,1.4,329.1,0.00,21.9,26.8,"23:16:16",1
"22/08/01","23:30",0.0,26.1,77.5,1007.8,283.6,1.0,1.7,338.3,0.00,21.9,26.6,"23:29:04",1
"22/08/01","23:40",0.0,26.1,77.9,1008.1,324.9,1.3,1.9,329.9,0.00,22.0,26.7,"23:33:36",1
"22/08/01","23:50",0.0,25.9,78.4,1007.8,331.7,1.2,2.0,337.4,0.00,21.9,26.5,"23:44:32",1
"22/08/01","24:00",0.0,25.9,79.0,1007.8,334.3,1.5,2.2,346.2,0.00,22.0,26.6,"23:54:40",1
